Regional Weather Roundup
Issued by NWS Sterling, VA

Home | Current Version | Previous Version | Graphics & Text | Print | Product List | Glossary On
Versions: 1 2 3 4 5 6 7 8 9 10 11 12 13 14 15 16 17 18 19 20 21 22 23 24 25 26 27 28 29 30 31 32 33 34 35 36 37 38 39 40 41 42 43 44 45 46 47 48 49 50
000
ASUS41 KLWX 041610
RWRLWX

REGIONAL WEATHER ROUNDUP
NATIONAL WEATHER SERVICE BALTIMORE MD/WASHINGTON DC
1200 PM EDT TUE AUG 04 2015

Note: "FAIR" indicates few or no clouds below 12,000 feet
with no significant weather and/or obstructions to visibility.
 TC=TEMPERATURE CELSIUS

 * =Non NWS site. Station does not report precipitation (e.g. rain,
    snow, etc.), thunder, or fog.

DCZ001-MDZ009-015-VAZ040>042-051-053>054-041700-
WASHINGTON METRO

CITY           SKY/WX    TMP DP  RH WIND       PRES   REMARKS
WASHINGTON NAT MOSUNNY   89  69  51 SE6       29.93F HX  93
DULLES         MOSUNNY   86  65  49 CALM      29.94F
ANDREWS AFB    SUNNY     89  66  47 VRB7      29.93F HX  91
FT BELVOIR     SUNNY     88  70  55 VRB7      29.93F HX  92
QUANTICO       MOSUNNY   86  71  60 S9        29.94S HX  91
COLLEGE PARK*  SUNNY     88  64  45 W9        29.93S
LEESBURG*      MOSUNNY   88  72  58 SW7G16    29.95S HX  94
MANASSAS*      SUNNY     88  68  51 CALM      29.94S HX  91
GAITHERSBURG*  MOSUNNY   82  70  65 W8        29.98F

$$

MDZ006>007-011-014-041700-
BALTIMORE METRO

CITY           SKY/WX    TMP DP  RH WIND       PRES   REMARKS
BWI AIRPORT    MOSUNNY   86  68  54 W9        29.92S
MD SCIENCE CTR   N/A     87  67  51 MISG      29.92S HX  90
MARTIN STATE   SUNNY     86  70  58 SW8G16    29.93F HX  90
ANNAPOLIS      SUNNY     86  65  49 W8        29.91F
FORT MEADE*    SUNNY     86  68  54 NW9       29.95S

$$

MDZ012-015-019>023-041700-
MARYLAND EASTERN SHORE

CITY           SKY/WX    TMP DP  RH WIND       PRES   REMARKS
OCEAN CITY     SUNNY     90  70  51 SW14G22   29.92F HX  95
SALISBURY      SUNNY     87  72  60 SW17      29.92F HX  93
BAY BRIDGE AP*   N/A     86  63  45 SW7       29.92F
CAMBRIDGE*     MOSUNNY   86  68  54 W5        29.92F
EASTON*        MOSUNNY   88  72  58 SW7       29.96F HX  94

$$

MDZ017>025-041700-
SOUTHERN MARYLAND

CITY           SKY/WX    TMP DP  RH WIND       PRES   REMARKS
PATUXENT RIVER MOSUNNY   88  69  53 W9        29.93F HX  92
ST INIGOES     NOT AVBL
LEONARDTOWN*   SUNNY     86  68  54 SW8       29.95F

$$

MDZ003>005-041700-
NORTH CENTRAL MARYLAND

CITY           SKY/WX    TMP DP  RH WIND       PRES   REMARKS
FREDERICK*     SUNNY     84  70  61 W13       29.97S
HAGERSTOWN APT SUNNY     83  61  47 SW8       29.95S
WESTMINSTER*   SUNNY     81  66  61 W7        29.95S

$$

MDZ501>502-041700-
WESTERN MARYLAND

CITY           SKY/WX    TMP DP  RH WIND       PRES   REMARKS
OAKLAND*       PTSUNNY   70  66  88 NW7       30.08R
CUMBERLAND*    MOSUNNY   86  55  35 W9        30.00S

$$

VAZ025>031-041700-
SHENANDOAH VALLEY

CITY           SKY/WX    TMP DP  RH WIND       PRES   REMARKS
WINCHESTER*    MOSUNNY   86  63  45 W9        29.96S
FRONT ROYAL*   FAIR      84  64  51 W6        29.95F
LURAY*         FAIR      90  63  40 S8        29.97F HX  90
NEW MARKET*    FAIR      85  66  52 SW3       29.96S
STAUNTON*      SUNNY     88  61  40 SW5       30.02S
WAYNESBORO*    FAIR      83  63  50 W7        30.02S

$$

WVZ021-048>050-054>055-041700-
EASTERN WEST VIRGINIA PANHANDLE

CITY           SKY/WX    TMP DP  RH WIND       PRES   REMARKS
MARTINSBURG    SUNNY     84  63  49 W10       29.96S
PETERSBURG*    PTSUNNY   83  63  51 CALM      29.99R

$$

VAZ036>039-050-041700-
CENTRAL FOOTHILLS

CITY           SKY/WX    TMP DP  RH WIND       PRES   REMARKS
CHARLOTTESVILL SUNNY     85  61  44 VRB6      29.97S
CULPEPER*      SUNNY     86  65  49 W7        29.95F
ORANGE*        SUNNY     90  61  37 SW5       29.97S
GORDONSVILLE*  FAIR      88  64  45 SW7       29.96S
WARRENTON*     FAIR      90  70  51 SW6       29.94F HX  95

$$

VAZ055>057-041700-
NORTH AND CENTRAL PIEDMONT

CITY           SKY/WX    TMP DP  RH WIND       PRES   REMARKS
FREDERICKSBRG* SUNNY     90  66  44 W9        29.93S HX  92
STAFFORD*      SUNNY     88  64  44 W6        29.98S

$$

NCZ024-NYZ072-PAZ021-071-VAZ022-071-041700-
OTHER REGIONAL OBSERVATIONS

CITY           SKY/WX    TMP DP  RH WIND       PRES   REMARKS
NEW YORK CITY  SUNNY     84  65  52 VRB3      29.88S
PHILADELPHIA   MOSUNNY   87  64  46 SW14      29.89F
PITTSBURGH     MOSUNNY   75  53  46 W7        29.99F
ROANOKE        MOSUNNY   88  64  44 S9        30.02F
RICHMOND       MOSUNNY   92  71  50 SW13G21   29.96S HX  98
RALEIGH        MOSUNNY   89  72  56 S5        30.00F HX  96

$$

ANZ530>537-041700-
MARINE OBSERVATIONS

STATION/POSITION TIME  TEMP    WIND        PRES
                       AIR SEA DIR/SP/G
                 (UTC) (F)     (DEG/KT/KT) (MB)
THOMAS PT LIGHT  NOT AVBL
BALT KEY BRIDGE  1500   80     260/ 10/ 12 1013.1R
COVE POINT       1500   82     280/ 11/ 15 1014.2R
LEWISETTA        1500   83 84  270/ 11/ 14 1013.6F
SOLOMONS ISLAND  1500      83                N/A
PINEY POINT      1500          260/  7/  9   N/A

$$




USA.gov is the U.S. government's official web portal to all federal, state and local government web resources and services.